Livingston, MT

8:42 PM MST on February 21, 2018 (GMT -0700)
Mission

Weather History for KLVM - July, 2013

Change the Weather History Date:

Sunday, July 14, 2013

  Actual Average Record
Temperature  
Mean Temperature 72 °F 67 °F  
Max Temperature 85 °F 85 °F 104 °F (2000)
Min Temperature 59 °F 49 °F 40 °F (1977)
Degree Days  
Heating Degree Days 0 2  
Month to date heating degree days 33  
Since 1 June heating degree days 240  
Since 1 July heating degree days 33  
Cooling Degree Days 7 4  
Month to date cooling degree days 93 38  
Year to date cooling degree days 143 58  
Since 1 June cooling degree days 135 57  
Growing Degree Days 22 (Base 50)    
Moisture  
Dew Point 49 °F    
Average Humidity 48    
Maximum Humidity 67    
Minimum Humidity 28    
Precipitation  
Precipitation T in 0.05 in 0.44 in (1964)
Month to date precipitation 1.23 0.73  
Year to date precipitation 7.05 9.38  
Sea Level Pressure  
Sea Level Pressure 30.04 in    
Wind  
Wind Speed 14 mph (East)    
Max Wind Speed 30 mph    
Max Gust Speed 40 mph    
Visibility 10 miles    
Events      
T = Trace of Precipitation, MM = Missing Value Source: NWS Daily Summary

Daily Weather History Graph

Daily Weather History Graph

Search for Another Location

Airport or City:

Trip Planner

Search our weather history database for the weather conditions in past years. The results will help you decide how hot, cold, wet, or windy it might be!

Date:

Astronomy

Jul. 14, 2013 Rise Set
Actual Time 5:46 AM MDT 9:08 PM MDT
Civil Twilight 5:09 AM MDT 9:45 PM MDT
Nautical Twilight 4:21 AM MDT 10:33 PM MDT
Astronomical Twilight 3:20 AM MDT 11:33 PM MDT
Moon 12:29 PM MDT (7/14) 11:58 PM MDT (7/14)
Length of Visible Light 16h 35m
Length of Day
15h 22m
Waxing Crescent, 35% of the Moon is Illuminated
Jul 14
Waxing Crescent
Jul 15
First Quarter
Jul 22
Full
Jul 29
Last Quarter
Aug 6
New

Hourly Weather History & Observations

Time (MDT) Temp. Dew Point Humidity Pressure Visibility Wind Dir Wind Speed Gust Speed Precip Events Conditions
12:53 AM 64.0 °F 53.1 °F 67% 30.06 in 10.0 mi East 23.0 mph 32.2 mph N/A   Overcast
1:53 AM 63.0 °F 52.0 °F 67% 30.07 in 10.0 mi East 29.9 mph 40.3 mph N/A   Mostly Cloudy
2:53 AM 61.0 °F 48.0 °F 62% 30.07 in 10.0 mi East 28.8 mph 34.5 mph N/A   Mostly Cloudy
3:53 AM 61.0 °F 46.9 °F 60% 30.09 in 10.0 mi East 21.9 mph 31.1 mph N/A   Overcast
4:53 AM 61.0 °F 46.0 °F 58% 30.09 in 10.0 mi East 13.8 mph 25.3 mph N/A   Overcast
5:53 AM 59.0 °F 46.9 °F 64% 30.12 in 10.0 mi ESE 12.7 mph - N/A   Overcast
6:53 AM 59.0 °F 48.9 °F 69% 30.13 in 10.0 mi East 16.1 mph - N/A   Scattered Clouds
7:53 AM 64.0 °F 48.0 °F 56% 30.14 in 10.0 mi East 18.4 mph - N/A   Overcast
8:53 AM 64.9 °F 48.9 °F 56% 30.13 in 10.0 mi East 18.4 mph 26.5 mph N/A   Clear
9:53 AM 66.9 °F 48.0 °F 51% 30.13 in 10.0 mi East 15.0 mph 20.7 mph N/A   Clear
10:53 AM 69.1 °F 48.0 °F 47% 30.12 in 10.0 mi East 10.4 mph 20.7 mph N/A   Clear
11:53 AM 72.0 °F 48.9 °F 44% 30.10 in 10.0 mi ENE 10.4 mph 18.4 mph N/A   Clear
12:53 PM 75.0 °F 48.9 °F 40% 30.07 in 10.0 mi East 11.5 mph 18.4 mph N/A   Clear
1:53 PM 77.0 °F 48.9 °F 37% 30.05 in 10.0 mi East 6.9 mph - N/A   Clear
2:53 PM 79.0 °F 46.0 °F 31% 30.02 in 10.0 mi Variable 3.5 mph - N/A   Clear
3:53 PM 82.0 °F 46.0 °F 28% 29.99 in 10.0 mi East 10.4 mph - N/A   Clear
4:53 PM 81.0 °F 45.0 °F 28% 29.98 in 10.0 mi ESE 9.2 mph - N/A   Scattered Clouds
5:53 PM 84.0 °F 48.0 °F 28% 29.96 in 10.0 mi ESE 13.8 mph - N/A   Partly Cloudy
6:53 PM 82.0 °F 52.0 °F 35% 29.94 in 10.0 mi East 10.4 mph - 0.00 in   Scattered Clouds
7:53 PM 80.1 °F 48.9 °F 34% 29.94 in 10.0 mi SE 13.8 mph - N/A   Clear
8:53 PM 75.0 °F 48.9 °F 40% 29.94 in 10.0 mi ESE 9.2 mph - N/A   Clear
9:53 PM 71.1 °F 50.0 °F 47% 29.95 in 10.0 mi East 8.1 mph - N/A   Clear
10:53 PM 72.0 °F 48.9 °F 44% 29.95 in 10.0 mi East 18.4 mph 28.8 mph N/A   Clear
11:53 PM 70.0 °F 48.9 °F 47% 29.98 in 10.0 mi SE 15.0 mph 23.0 mph N/A   Mostly Cloudy